Weather in Yelizavetivka

Ukraine / Zaporizhia Region     46°56′46″N   36°24′13″E
temp.,
°C
wind,
m/s
gust,
m/s
humid.,
%
clouds,
%
prec.,
mm/h
press.,
hPa
HPBL,
m
16 june, wed
wed1600:00+17s12925 2.3 100920
03:00+16s229199 2.3 101014
06:00+17ssw0192100 0.4 101037
09:00+19wsw3479100 0.4 1011373
12:00+22s235894 0.0 1011949
15:00+24sse23473 0.0 10101250
18:00+25ese22415 0.0 10101196
21:00+20n335699 0.0 101033
17 june, thu
thu1700:00+18ne51190100 1.6 1010384
03:00+18nne91786100 10.8 1008465
06:00+18ene41294100 10.3 1010568
09:00+21ene91485100 15.3 1010872
12:00+22e101380100 0.4 10111108
15:00+22e10127899 2.2 10121048
18:00+20e5886100 0.4 1012638
21:00+18ene5993100 0.4 1013320
18 june, fri
fri1800:00+17ene4896100 0.0 1013203
03:00+17ene469740 0.3 1013143
06:00+18e599296 0.1 1014336
09:00+20se7979100 0.3 1016991
12:00+22sse6768100 0.3 10171245
15:00+24se66575 0.4 10181546
18:00+23ese45580 0.0 10181032
21:00+18ene48790 0.0 1019128
19 june, sat
sat1900:00+16ene49950 0.0 1019212
03:00+15ne49920 0.0 1018167
06:00+16ne510860 0.0 1018268
09:00+21ene78690 0.0 1017602
12:00+25e79590 0.0 10161000
15:00+26e9115714 0.0 10161305
18:00+25e813590 0.0 10161224
21:00+22ene91865100 0.0 1015643
20 june, sun
sun2000:00+20ene91964100 0.8 1014553
03:00+19ene9195413 0.8 1014489
06:00+19e81855100 0.0 1014569
09:00+22e9155753 0.0 1014758
12:00+25e912501 1.0 1013887
15:00+26e1012500 1.0 10131081
18:00+26e712580 0.0 10121204
21:00+22ene48750 0.0 1012148